When you browse on this site, cookies collect data to enhance your experience and personalize the content and advertising you see.
Visit our Privacy Policy to learn more. By continuing to use the site, you agree to this use of cookies and data.

Hourly Weather Viedma

Today, 14 August, Friday

Time Temperature Precipitation Wind Pressure Humidity
00:00 +10°C° 0 mm 5 mps 750 mmHg 54%
01:00 +9°C° 0 mm 6 mps 749 mmHg 54%
02:00 +9°C° 0 mm 6 mps 749 mmHg 54%
03:00 +9°C° 0 mm 6 mps 749 mmHg 54%
04:00 +9°C° 0 mm 6 mps 749 mmHg 54%
05:00 +9°C° 0 mm 6 mps 749 mmHg 53%
06:00 +9°C° 0 mm 6 mps 749 mmHg 56%
07:00 +9°C° 0 mm 7 mps 750 mmHg 59%
08:00 +9°C° 0 mm 7 mps 750 mmHg 62%
09:00 +9°C° 0 mm 7 mps 751 mmHg 58%
10:00 +9°C° 0 mm 7 mps 751 mmHg 53%
11:00 +9°C° 0 mm 7 mps 752 mmHg 49%
12:00 +9°C° 0 mm 8 mps 752 mmHg 46%
13:00 +10°C° 0 mm 8 mps 752 mmHg 44%
14:00 +10°C° 0 mm 8 mps 752 mmHg 41%
15:00 +10°C° 0 mm 7 mps 751 mmHg 40%
16:00 +9°C° 0 mm 5 mps 751 mmHg 38%
17:00 +10°C° 0 mm 4 mps 751 mmHg 37%
18:00 +8°C° 0 mm 4 mps 751 mmHg 36%
19:00 +7°C° 0 mm 4 mps 751 mmHg 36%
20:00 +6°C° 0 mm 4 mps 752 mmHg 36%
21:00 +6°C° 0 mm 5 mps 751 mmHg 37%
22:00 +5°C° 0 mm 7 mps 751 mmHg 38%
23:00 +6°C° 0 mm 8 mps 750 mmHg 38%

Tomorrow, 15 August, Saturday

Time Temperature Precipitation Wind Pressure Humidity
00:00 +5°C° 0 mm 8 mps 750 mmHg 42%
01:00 +5°C° 0 mm 7 mps 750 mmHg 45%
02:00 +4°C° 0 mm 6 mps 750 mmHg 49%
03:00 +4°C° 0 mm 7 mps 750 mmHg 48%
04:00 +4°C° 0 mm 7 mps 750 mmHg 48%
05:00 +3°C° 0 mm 7 mps 750 mmHg 47%
06:00 +2°C° 0 mm 8 mps 750 mmHg 46%
07:00 +2°C° 0 mm 9 mps 750 mmHg 45%
08:00 +3°C° 0 mm 9 mps 750 mmHg 44%
09:00 +3°C° 0 mm 10 mps 751 mmHg 44%
10:00 +4°C° 0 mm 11 mps 751 mmHg 44%
11:00 +4°C° 0 mm 13 mps 751 mmHg 45%
12:00 +5°C° 0 mm 13 mps 751 mmHg 44%
13:00 +7°C° 0 mm 13 mps 751 mmHg 43%
14:00 +7°C° 0 mm 13 mps 752 mmHg 42%
15:00 +7°C° 0 mm 11 mps 752 mmHg 43%
16:00 +6°C° 0 mm 9 mps 753 mmHg 44%
17:00 +6°C° 0 mm 7 mps 753 mmHg 45%
18:00 +5°C° 0 mm 6 mps 753 mmHg 47%
19:00 +5°C° 0 mm 5 mps 753 mmHg 48%
20:00 +4°C° 0 mm 4 mps 754 mmHg 49%
21:00 +3°C° 0 mm 5 mps 753 mmHg 48%
22:00 +3°C° 0 mm 5 mps 753 mmHg 48%
23:00 +3°C° 0 mm 6 mps 753 mmHg 47%

Day after tomorrow, 16 August, Sunday

Time Temperature Precipitation Wind Pressure Humidity
00:00 +3°C° 0 mm 7 mps 752 mmHg 47%
01:00 +2°C° 0 mm 8 mps 752 mmHg 47%
02:00 +4°C° 0 mm 8 mps 752 mmHg 46%
03:00 +3°C° 0 mm 9 mps 751 mmHg 46%
04:00 +3°C° 0 mm 9 mps 751 mmHg 46%
05:00 +3°C° 0 mm 9 mps 750 mmHg 45%
06:00 +3°C° 0 mm 9 mps 750 mmHg 46%
07:00 +5°C° 0 mm 9 mps 750 mmHg 46%
08:00 +5°C° 0 mm 10 mps 750 mmHg 46%
09:00 +7°C° 0 mm 10 mps 750 mmHg 45%
10:00 +9°C° 0 mm 11 mps 750 mmHg 43%
11:00 +12°C° 0 mm 12 mps 751 mmHg 42%
12:00 +11°C° 0 mm 11 mps 751 mmHg 47%
13:00 +9°C° 0 mm 10 mps 751 mmHg 52%
14:00 +8°C° 0 mm 10 mps 752 mmHg 57%
15:00 +7°C° 0 mm 8 mps 752 mmHg 52%
16:00 +8°C° 0 mm 7 mps 752 mmHg 47%
17:00 +7°C° 0 mm 5 mps 753 mmHg 42%
18:00 +6°C° 0 mm 4 mps 753 mmHg 47%
19:00 +5°C° 0 mm 3 mps 754 mmHg 52%
20:00 +4°C° 0 mm 2 mps 754 mmHg 56%
21:00 +4°C° 0 mm 2 mps 754 mmHg 56%
22:00 +4°C° 0 mm 2 mps 754 mmHg 56%
23:00 +4°C° 0 mm 2 mps 755 mmHg 56%

17 August, Monday

Time Temperature Precipitation Wind Pressure Humidity
00:00 +3°C° 0 mm 3 mps 754 mmHg 55%
01:00 +3°C° 0 mm 4 mps 754 mmHg 55%
02:00 +2°C° 0 mm 5 mps 754 mmHg 55%
03:00 +2°C° 0 mm 5 mps 754 mmHg 59%
04:00 +2°C° 0 mm 5 mps 753 mmHg 64%
05:00 +3°C° 0 mm 4 mps 753 mmHg 68%
06:00 +3°C° 0 mm 4 mps 753 mmHg 69%
07:00 +4°C° 0 mm 4 mps 752 mmHg 69%
08:00 +4°C° 0 mm 4 mps 752 mmHg 69%
09:00 +7°C° 0 mm 5 mps 752 mmHg 57%
10:00 +9°C° 0 mm 6 mps 752 mmHg 45%
11:00 +13°C° 0 mm 6 mps 751 mmHg 33%
12:00 +14°C° 0 mm 7 mps 750 mmHg 32%
13:00 +15°C° 0 mm 7 mps 749 mmHg 30%
14:00 +16°C° 0 mm 8 mps 748 mmHg 29%
15:00 +14°C° 0 mm 7 mps 748 mmHg 31%
16:00 +13°C° 0 mm 6 mps 747 mmHg 34%
17:00 +12°C° 0 mm 5 mps 747 mmHg 37%
18:00 +10°C° 0 mm 5 mps 746 mmHg 38%
19:00 +10°C° 0 mm 5 mps 746 mmHg 39%
20:00 +9°C° 0 mm 5 mps 746 mmHg 40%
21:00 +8°C° 0 mm 6 mps 746 mmHg 45%
22:00 +8°C° 0 mm 6 mps 746 mmHg 49%
23:00 +8°C° 0 mm 6 mps 746 mmHg 53%

18 August, Tuesday

Time Temperature Precipitation Wind Pressure Humidity
00:00 +7°C° 0 mm 6 mps 746 mmHg 53%
01:00 +7°C° 0 mm 6 mps 746 mmHg 54%
02:00 +6°C° 0 mm 5 mps 747 mmHg 54%
03:00 +4°C° 0 mm 6 mps 747 mmHg 51%
04:00 +4°C° 0 mm 6 mps 747 mmHg 47%
05:00 +3°C° 0 mm 6 mps 747 mmHg 44%
06:00 +3°C° 0 mm 6 mps 748 mmHg 44%
07:00 +3°C° 0 mm 6 mps 748 mmHg 45%
08:00 +3°C° 0 mm 6 mps 749 mmHg 46%
09:00 +4°C° 0 mm 7 mps 749 mmHg 44%
10:00 +5°C° 0 mm 9 mps 750 mmHg 43%
11:00 +6°C° 0 mm 10 mps 750 mmHg 42%
12:00 +6°C° 0 mm 10 mps 751 mmHg 41%
13:00 +6°C° 0 mm 11 mps 751 mmHg 40%
14:00 +7°C° 0 mm 11 mps 751 mmHg 40%
15:00 +6°C° 0 mm 10 mps 752 mmHg 43%
16:00 +6°C° 0 mm 10 mps 753 mmHg 46%
17:00 +5°C° 0 mm 10 mps 753 mmHg 49%
18:00 +5°C° 0.1 mm 9 mps 754 mmHg 54%
19:00 +4°C° 0.1 mm 8 mps 754 mmHg 59%
20:00 +4°C° 0.1 mm 7 mps 755 mmHg 64%
21:00 +4°C° 0.1 mm 7 mps 755 mmHg 69%
22:00 +4°C° 0.1 mm 7 mps 756 mmHg 74%
23:00 +4°C° 0.1 mm 6 mps 756 mmHg 79%

19 August, Wednesday

Time Temperature Precipitation Wind Pressure Humidity
00:00 +4°C° 0.4 mm 8 mps 757 mmHg 77%
01:00 +3°C° 0.4 mm 9 mps 758 mmHg 75%
02:00 +3°C° 0.4 mm 10 mps 758 mmHg 73%
03:00 +3°C° 0.2 mm 11 mps 759 mmHg 73%
04:00 +3°C° 0.2 mm 11 mps 760 mmHg 73%
05:00 +2°C° 0.2 mm 11 mps 760 mmHg 73%
06:00 +2°C° 0 mm 11 mps 761 mmHg 72%
07:00 +2°C° 0 mm 10 mps 762 mmHg 70%
08:00 +2°C° 0 mm 10 mps 762 mmHg 69%
09:00 +3°C° 0.1 mm 10 mps 763 mmHg 64%
10:00 +3°C° 0.1 mm 11 mps 764 mmHg 58%
11:00 +4°C° 0.1 mm 11 mps 765 mmHg 53%
12:00 +4°C° 0.2 mm 11 mps 765 mmHg 53%
13:00 +4°C° 0.2 mm 11 mps 765 mmHg 52%
14:00 +5°C° 0.2 mm 10 mps 765 mmHg 52%
15:00 +5°C° 0.1 mm 9 mps 765 mmHg 54%
16:00 +3°C° 0.1 mm 9 mps 765 mmHg 57%
17:00 +4°C° 0.1 mm 8 mps 766 mmHg 60%
18:00 +3°C° 0.1 mm 7 mps 766 mmHg 63%
19:00 +3°C° 0.1 mm 7 mps 766 mmHg 65%
20:00 +2°C° 0.1 mm 6 mps 766 mmHg 68%
21:00 +2°C° 0 mm 5 mps 767 mmHg 70%
22:00 +2°C° 0 mm 5 mps 767 mmHg 71%
23:00 +1°C° 0 mm 5 mps 767 mmHg 73%
Show more